• In France
  • List of Countries
  • For 7 days
  • Water Temperature
  • Satellite Maps
  • Weather Map
  • Weather Widgets
  • user-avatar
    Login

    Hourly Weather Kecskemet

    Today, 18 January, Thursday

    Time Temperature Precipitation Wind Pressure Humidity
    00:00 -2°C° 0 mm 7 mps 743 mmHg 70%
    01:00 -3°C° 0 mm 7 mps 744 mmHg 71%
    02:00 -3°C° 0 mm 6 mps 745 mmHg 72%
    03:00 -3°C° 0 mm 6 mps 745 mmHg 74%
    04:00 -3°C° 0 mm 6 mps 746 mmHg 75%
    05:00 -3°C° 0 mm 6 mps 746 mmHg 76%
    06:00 -3°C° 0 mm 6 mps 747 mmHg 77%
    07:00 -2°C° 0 mm 5 mps 747 mmHg 78%
    08:00 -2°C° 0 mm 6 mps 748 mmHg 73%
    09:00 -1°C° 0 mm 6 mps 748 mmHg 68%
    10:00 +2°C° 0 mm 6 mps 748 mmHg 63%
    11:00 +2°C° 0 mm 6 mps 748 mmHg 60%
    12:00 +3°C° 0 mm 5 mps 748 mmHg 58%
    13:00 +4°C° 0 mm 4 mps 748 mmHg 56%
    14:00 +4°C° 0 mm 4 mps 748 mmHg 57%
    15:00 +3°C° 0 mm 4 mps 747 mmHg 59%
    16:00 +3°C° 0 mm 4 mps 747 mmHg 60%
    17:00 +2°C° 0 mm 5 mps 746 mmHg 59%
    18:00 +2°C° 0 mm 6 mps 746 mmHg 57%
    19:00 +2°C° 0 mm 6 mps 745 mmHg 56%
    20:00 +3°C° 0 mm 7 mps 745 mmHg 56%
    21:00 +3°C° 0 mm 7 mps 744 mmHg 57%
    22:00 +3°C° 0 mm 7 mps 744 mmHg 57%
    23:00 +3°C° 0.1 mm 7 mps 744 mmHg 60%

    Tomorrow, 19 January, Friday

    Time Temperature Precipitation Wind Pressure Humidity
    00:00 +3°C° 0.1 mm 6 mps 744 mmHg 63%
    01:00 +3°C° 0.1 mm 5 mps 744 mmHg 65%
    02:00 +3°C° 0.3 mm 5 mps 744 mmHg 68%
    03:00 +3°C° 0.3 mm 5 mps 744 mmHg 71%
    04:00 +3°C° 0.3 mm 5 mps 744 mmHg 74%
    05:00 +3°C° 0.1 mm 5 mps 744 mmHg 74%
    06:00 +3°C° 0.1 mm 5 mps 744 mmHg 74%
    07:00 +3°C° 0.1 mm 5 mps 745 mmHg 74%
    08:00 +5°C° 0 mm 5 mps 745 mmHg 74%
    09:00 +5°C° 0 mm 5 mps 746 mmHg 74%
    10:00 +5°C° 0 mm 5 mps 746 mmHg 74%
    11:00 +6°C° 0.1 mm 5 mps 746 mmHg 71%
    12:00 +6°C° 0.1 mm 5 mps 746 mmHg 67%
    13:00 +7°C° 0.1 mm 5 mps 746 mmHg 64%
    14:00 +6°C° 0 mm 4 mps 747 mmHg 65%
    15:00 +5°C° 0 mm 3 mps 747 mmHg 67%
    16:00 +5°C° 0 mm 3 mps 747 mmHg 68%
    17:00 +5°C° 0.1 mm 2 mps 748 mmHg 70%
    18:00 +5°C° 0.1 mm 2 mps 748 mmHg 72%
    19:00 +4°C° 0.1 mm 2 mps 748 mmHg 74%
    20:00 +4°C° 0.1 mm 2 mps 749 mmHg 74%
    21:00 +4°C° 0.1 mm 2 mps 749 mmHg 75%
    22:00 +4°C° 0.1 mm 2 mps 749 mmHg 75%
    23:00 +2°C° 0 mm 3 mps 749 mmHg 75%

    Day after tomorrow, 20 January, Saturday

    Time Temperature Precipitation Wind Pressure Humidity
    00:00 +2°C° 0 mm 3 mps 749 mmHg 76%
    01:00 +2°C° 0 mm 3 mps 749 mmHg 76%
    02:00 +1°C° 0 mm 3 mps 749 mmHg 77%
    03:00 +2°C° 0 mm 2 mps 749 mmHg 78%
    04:00 +1°C° 0 mm 2 mps 749 mmHg 79%
    05:00 +1°C° 0 mm 2 mps 749 mmHg 79%
    06:00 +1°C° 0 mm 2 mps 749 mmHg 80%
    07:00 -1°C° 0 mm 2 mps 749 mmHg 80%
    08:00 +1°C° 0 mm 2 mps 750 mmHg 76%
    09:00 +2°C° 0 mm 2 mps 750 mmHg 72%
    10:00 +3°C° 0 mm 2 mps 750 mmHg 67%
    11:00 +4°C° 0 mm 2 mps 750 mmHg 64%
    12:00 +4°C° 0 mm 3 mps 749 mmHg 61%
    13:00 +4°C° 0 mm 3 mps 749 mmHg 57%
    14:00 +5°C° 0 mm 2 mps 749 mmHg 60%
    15:00 +4°C° 0 mm 2 mps 748 mmHg 63%
    16:00 +5°C° 0 mm 1 mps 748 mmHg 65%
    17:00 +4°C° 0 mm 1 mps 748 mmHg 68%
    18:00 +3°C° 0 mm 2 mps 748 mmHg 70%
    19:00 +2°C° 0 mm 2 mps 748 mmHg 73%
    20:00 +2°C° 0 mm 2 mps 748 mmHg 75%
    21:00 +2°C° 0 mm 2 mps 748 mmHg 78%
    22:00 +1°C° 0 mm 2 mps 748 mmHg 80%
    23:00 +1°C° 0 mm 2 mps 748 mmHg 82%

    21 January, Sunday

    Time Temperature Precipitation Wind Pressure Humidity
    00:00 +2°C° 0 mm 1 mps 747 mmHg 84%
    01:00 +2°C° 0 mm 1 mps 747 mmHg 85%
    02:00 +2°C° 0 mm 1 mps 747 mmHg 85%
    03:00 +2°C° 0 mm 1 mps 747 mmHg 85%
    04:00 +2°C° 0 mm 1 mps 747 mmHg 85%
    05:00 +1°C° 0.6 mm 2 mps 748 mmHg 87%
    06:00 +1°C° 0.6 mm 2 mps 748 mmHg 88%
    07:00 +1°C° 0.6 mm 2 mps 749 mmHg 89%
    08:00 0°C° 0.4 mm 3 mps 749 mmHg 88%
    09:00 0°C° 0.4 mm 3 mps 750 mmHg 87%
    10:00 -1°C° 0.4 mm 4 mps 750 mmHg 86%
    11:00 0°C° 0 mm 4 mps 750 mmHg 81%
    12:00 +1°C° 0 mm 5 mps 750 mmHg 76%
    13:00 +1°C° 0 mm 5 mps 750 mmHg 71%
    14:00 0°C° 0 mm 5 mps 751 mmHg 73%
    15:00 0°C° 0 mm 4 mps 751 mmHg 75%
    16:00 -1°C° 0 mm 4 mps 751 mmHg 77%
    17:00 0°C° 0 mm 3 mps 752 mmHg 80%
    18:00 -1°C° 0 mm 3 mps 752 mmHg 82%
    19:00 -2°C° 0 mm 3 mps 753 mmHg 85%
    20:00 -2°C° 0 mm 3 mps 753 mmHg 85%
    21:00 -2°C° 0 mm 2 mps 754 mmHg 85%
    22:00 -2°C° 0 mm 2 mps 754 mmHg 85%
    23:00 -3°C° 0 mm 2 mps 754 mmHg 85%

    22 January, Monday

    Time Temperature Precipitation Wind Pressure Humidity
    00:00 -3°C° 0 mm 2 mps 754 mmHg 85%
    01:00 -1°C° 0 mm 1 mps 754 mmHg 85%
    02:00 -1°C° 0 mm 1 mps 755 mmHg 85%
    03:00 -1°C° 0 mm 1 mps 755 mmHg 85%
    04:00 -1°C° 0 mm 1 mps 755 mmHg 85%
    05:00 -1°C° 0 mm 1 mps 755 mmHg 85%
    06:00 -1°C° 0 mm 1 mps 756 mmHg 85%
    07:00 -1°C° 0 mm 1 mps 756 mmHg 84%
    08:00 0°C° 0 mm 1 mps 757 mmHg 80%
    09:00 +1°C° 0 mm 1 mps 757 mmHg 76%
    10:00 +2°C° 0 mm 1 mps 758 mmHg 71%
    11:00 +2°C° 0 mm 1 mps 758 mmHg 68%
    12:00 +3°C° 0 mm 1 mps 758 mmHg 64%
    13:00 +4°C° 0 mm 1 mps 758 mmHg 61%
    14:00 +3°C° 0 mm 1 mps 759 mmHg 64%
    15:00 +2°C° 0 mm 1 mps 759 mmHg 67%
    16:00 +2°C° 0 mm 1 mps 759 mmHg 71%
    17:00 +1°C° 0 mm 1 mps 759 mmHg 73%
    18:00 +1°C° 0 mm 1 mps 760 mmHg 76%
    19:00 0°C° 0 mm 1 mps 760 mmHg 78%
    20:00 0°C° 0 mm 1 mps 760 mmHg 79%
    21:00 0°C° 0 mm 1 mps 761 mmHg 80%
    22:00 0°C° 0 mm 1 mps 761 mmHg 80%
    23:00 -1°C° 0 mm 1 mps 761 mmHg 80%

    23 January, Tuesday

    Time Temperature Precipitation Wind Pressure Humidity
    00:00 -1°C° 0 mm 1 mps 761 mmHg 80%
    01:00 -1°C° 0 mm 1 mps 761 mmHg 80%
    02:00 -3°C° 0 mm 2 mps 761 mmHg 80%
    03:00 -3°C° 0 mm 2 mps 761 mmHg 80%
    04:00 -3°C° 0 mm 2 mps 761 mmHg 80%
    05:00 -3°C° 0 mm 2 mps 761 mmHg 79%
    06:00 -3°C° 0 mm 2 mps 761 mmHg 79%
    07:00 -2°C° 0 mm 3 mps 761 mmHg 78%
    08:00 -2°C° 0.1 mm 3 mps 761 mmHg 76%
    09:00 -1°C° 0.1 mm 3 mps 762 mmHg 75%
    10:00 -1°C° 0.1 mm 3 mps 762 mmHg 73%
    11:00 0°C° 0.1 mm 3 mps 762 mmHg 73%
    12:00 0°C° 0.1 mm 3 mps 761 mmHg 72%
    13:00 0°C° 0.1 mm 3 mps 761 mmHg 71%
    14:00 0°C° 0 mm 3 mps 761 mmHg 72%
    15:00 +1°C° 0 mm 2 mps 761 mmHg 72%
    16:00 +1°C° 0 mm 2 mps 761 mmHg 73%
    17:00 +1°C° 0 mm 2 mps 761 mmHg 73%
    18:00 +1°C° 0 mm 2 mps 761 mmHg 74%
    19:00 +1°C° 0 mm 2 mps 761 mmHg 75%
    20:00 +1°C° 0 mm 2 mps 761 mmHg 77%
    21:00 +1°C° 0 mm 2 mps 761 mmHg 79%
    22:00 +1°C° 0 mm 2 mps 761 mmHg 81%
    23:00 +1°C° 0 mm 2 mps 761 mmHg 84%
    Show more